Location: Geroldsau
(48.7259°N, 8.2466°E)
Time: 18:35:13
(UTC+00:00)

FALCON 9 DEB - Pass Details

Date: 28 October 2021
Orbit: 337 x 349 km, 53.0° (Epoch: 30 November)

Event Time Altitude Azimuth Distance (km) Brightness Sun altitude
Rises 18:11:25 0° 250° (WSW) 2,171 7.9 -20.0°
Reaches altitude 10° 18:13:26 10° 253° (WSW) 1,334 6.6 -20.3°
Enters shadow 18:15:55 55° 281° (WNW) 438 3.4 -20.7°
